TimeAKDT,TemperatureF,Dew PointF,Humidity,Sea Level PressureIn,VisibilityMPH,Wind Direction,Wind SpeedMPH,Gust SpeedMPH,PrecipitationIn,Events,Conditions,WindDirDegrees,DateUTC
12:53 AM,51.1,43.0,74,30.19,10.0,SSW,18.4,24.2,N/A,,Mostly Cloudy,200,2012-09-15 08:53:00
1:53 AM,50.0,44.1,80,30.19,10.0,SSW,23.0,26.5,N/A,,Overcast,210,2012-09-15 09:53:00
2:53 AM,50.0,44.1,80,30.20,10.0,SSW,21.9,-,N/A,,Overcast,200,2012-09-15 10:53:00
3:53 AM,51.1,43.0,74,30.21,10.0,SSW,18.4,-,N/A,,Overcast,200,2012-09-15 11:53:00
4:53 AM,50.0,44.1,80,30.22,10.0,SSW,18.4,26.5,N/A,,Overcast,200,2012-09-15 12:53:00
5:53 AM,50.0,43.0,77,30.23,10.0,SSW,20.7,25.3,N/A,,Overcast,200,2012-09-15 13:53:00
6:53 AM,50.0,44.1,80,30.25,10.0,SSW,16.1,24.2,N/A,,Mostly Cloudy,210,2012-09-15 14:53:00
7:53 AM,50.0,44.1,80,30.26,10.0,SSW,20.7,29.9,N/A,,Overcast,210,2012-09-15 15:53:00
8:53 AM,51.1,44.1,77,30.28,10.0,SSW,20.7,-,N/A,,Overcast,210,2012-09-15 16:53:00
9:53 AM,51.1,44.1,77,30.29,10.0,SSW,16.1,-,N/A,,Overcast,200,2012-09-15 17:53:00
10:53 AM,51.1,44.1,77,30.30,10.0,SSW,15.0,25.3,N/A,,Overcast,200,2012-09-15 18:53:00
11:53 AM,51.1,44.1,77,30.31,10.0,SSW,17.3,28.8,0.00,Rain,Light Rain,200,2012-09-15 19:53:00
12:53 PM,51.1,44.1,77,30.31,10.0,SSW,24.2,32.2,0.00,,Overcast,210,2012-09-15 20:53:00
1:53 PM,51.1,44.1,77,30.31,10.0,SSW,24.2,28.8,N/A,,Overcast,210,2012-09-15 21:53:00
2:53 PM,51.1,44.1,77,30.32,10.0,SSW,23.0,35.7,N/A,,Overcast,210,2012-09-15 22:53:00
3:53 PM,52.0,45.0,77,30.31,10.0,SSW,23.0,32.2,0.01,,Overcast,200,2012-09-15 23:53:00
4:53 PM,52.0,45.0,77,30.31,10.0,SSW,24.2,32.2,N/A,,Mostly Cloudy,200,2012-09-16 00:53:00
5:53 PM,52.0,45.0,77,30.30,10.0,SSW,21.9,31.1,N/A,,Overcast,200,2012-09-16 01:53:00
6:53 PM,52.0,45.0,77,30.31,10.0,SSW,24.2,29.9,N/A,,Overcast,200,2012-09-16 02:53:00
7:53 PM,52.0,45.0,77,30.30,10.0,SSW,20.7,29.9,N/A,,Overcast,210,2012-09-16 03:53:00
8:53 PM,52.0,45.0,77,30.30,10.0,SSW,24.2,33.4,N/A,,Overcast,200,2012-09-16 04:53:00
9:53 PM,52.0,45.0,77,30.30,10.0,SSW,17.3,33.4,N/A,,Partly Cloudy,200,2012-09-16 05:53:00
10:53 PM,52.0,45.0,77,30.30,10.0,SSW,18.4,26.5,N/A,,Overcast,200,2012-09-16 06:53:00
11:53 PM,52.0,45.0,77,30.31,10.0,SSW,18.4,24.2,N/A,,Mostly Cloudy,200,2012-09-16 07:53:00